Total_Precipitation_Accumulation
0.01 0.00 0.01 0.01 0.00 0.01 0.00 0.00 0.00 0.00 0.00 0.00 0.00 0.00 0.00 0.00 0.00 0.00 0.00 0.00 0.00 0.00 0.00 0.00 0.00 0.00 0.00
0.11 0.09 0.06 0.04 0.04 0.05 0.05 0.03 0.02 0.01 0.01 0.02 0.03 0.03 0.02 0.02 0.01 0.00 0.00 0.00 0.00 0.00 0.00 0.00 0.00 0.00 0.00
0.27 0.25 0.19 0.13 0.12 0.11 0.09 0.07 0.04 0.03 0.03 0.02 0.03 0.03 0.02 0.01 0.01 0.00 0.00 0.00 0.00 0.00 0.00 0.00 0.00 0.00 0.00
0.12 0.19 0.15 0.07 0.10 0.12 0.08 0.07 0.05 0.03 0.02 0.02 0.03 0.03 0.02 0.01 0.00 0.00 0.00 0.00 0.00 0.00 0.00 0.00 0.00 0.00 0.00
0.08 0.13 0.12 0.05 0.06 0.07 0.11 0.08 0.04 0.01 0.00 0.00 0.01 0.02 0.02 0.01 0.00 0.00 0.00 0.00 0.00 0.00 0.00 0.00 0.00 0.00 0.00
0.02 0.03 0.03 0.02 0.02 0.04 0.08 0.08 0.06 0.01 0.00 0.01 0.01 0.01 0.00 0.00 0.00 0.01 0.01 0.01 0.00 0.00 0.00 0.01 0.01 0.02 0.00
0.02 0.03 0.04 0.05 0.07 0.09 0.10 0.09 0.05 0.01 0.01 0.02 0.02 0.01 0.00 0.00 0.00 0.00 0.00 0.00 0.01 0.01 0.00 0.00 0.00 0.00 0.00
0.23 0.23 0.22 0.21 0.20 0.16 0.11 0.08 0.07 0.05 0.07 0.07 0.02 0.01 0.01 0.01 0.01 0.02 0.02 0.03 0.03 0.03 0.03 0.02 0.01 0.01 0.00
0.38 0.41 0.47 0.55 0.56 0.46 0.36 0.31 0.21 0.09 0.06 0.11 0.07 0.05 0.03 0.02 0.01 0.04 0.05 0.04 0.05 0.05 0.03 0.03 0.02 0.02 0.03
0.15 0.13 0.10 0.12 0.23 0.28 0.32 0.32 0.19 0.12 0.05 0.08 0.04 0.04 0.04 0.02 0.00 0.01 0.04 0.06 0.08 0.07 0.07 0.06 0.05 0.04 0.03
0.01 0.00 0.00 0.00 0.01 0.05 0.11 0.26 0.26 0.19 0.14 0.28 0.12 0.09 0.10 0.09 0.05 0.01 0.02 0.05 0.15 0.16 0.17 0.15 0.12 0.10 0.05
0.00 0.00 0.00 0.00 0.01 0.01 0.02 0.04 0.14 0.17 0.13 0.25 0.21 0.14 0.16 0.17 0.14 0.07 0.06 0.10 0.18 0.26 0.28 0.33 0.40 0.34 0.24
0.00 0.00 0.00 0.00 0.00 0.00 0.01 0.01 0.03 0.07 0.12 0.18 0.23 0.21 0.25 0.27 0.22 0.16 0.14 0.16 0.20 0.26 0.30 0.33 0.33 0.31 0.29
0.00 0.00 0.00 0.00 0.00 0.00 0.00 0.00 0.00 0.01 0.02 0.07 0.13 0.18 0.22 0.23 0.21 0.20 0.17 0.19 0.23 0.27 0.31 0.34 0.33 0.30 0.24
0.00 0.00 0.00 0.00 0.00 0.00 0.00 0.00 0.00 0.00 0.00 0.01 0.04 0.09 0.15 0.18 0.19 0.18 0.14 0.14 0.13 0.15 0.24 0.37 0.43 0.38 0.31
0.00 0.00 0.00 0.00 0.00 0.00 0.00 0.00 0.00 0.00 0.00 0.00 0.01 0.04 0.11 0.19 0.21 0.20 0.20 0.20 0.21 0.24 0.30 0.35 0.37 0.37 0.33
0.00 0.00 0.00 0.00 0.01 0.00 0.00 0.00 0.00 0.01 0.01 0.02 0.03 0.07 0.11 0.13 0.16 0.24 0.28 0.32 0.37 0.44 0.45 0.42 0.36 0.31 0.29